Find Starlink 31285

NORAD ID: 59244 Int'l Des: 2024-049 Owner: SPXS Country: US Constellation: starlink operational
LEOCIRCULAR

リアルタイム位置

3D地球を読み込み中...

Starlink 31285について

説明を読み込み中...

次回通過

Passes for default location (London). Set your location on the main map for personalized predictions.

高度履歴

Loading altitude history...

軌道要素

1 59244U 24049P 26133.05758339 -.00000566 00000-0 -11068-4 0 9997
2 59244 43.0024 139.7342 0000847 274.7702 85.3053 15.27573859122243
Epoch: May 13, 2026 • Age: 7 hours

現在のステータス

高度 482.9 km
速度 7.63 km/s
衛星直下点 0.47°N, 40.14°W
打ち上げ日 Mar 16, 2024
運用期間 2.1 years
タイプ internet

技術仕様

分類 Payload
質量 730.00 kg
乾燥質量 700.00 kg
総質量 730.00 kg
長さ 0.30 m
直径 4.10 m
スパン 29.00 m
形状 Box + pan
製造者 SPXS
バスタイプ Starlink V2M
フェーズステータス In Orbit
所有者/国 SPXS/US

Most Searched